Temperature
12 11 10 11 11 12 13 13 13 13 13 12 11 12 12 13 13 13 13 12 12 11 11 10 10 10 10 10 10 10 10 10 10 10 9 9 9 9 9 9 9 9 8 9
11 9 10 12 12 12 12 12 12 12 12 12 11 11 12 12 12 12 12 12 12 11 10 10 9 9 9 9 9 9 9 9 9 9 9 8 8 8 8 8 8 8 8 8
10 10 11 11 11 11 11 11 11 11 11 11 11 10 12 13 13 13 12 12 11 11 10 9 9 9 9 9 9 9 9 9 8 8 8 8 8 8 8 8 8 7 7 7
10 10 11 10 10 10 10 11 11 10 9 9 10 8 11 12 12 11 12 11 11 10 9 9 8 8 8 8 8 8 8 8 8 8 8 7 7 7 7 7 7 7 7 7
9 9 9 9 9 10 10 10 10 10 9 8 9 8 9 12 11 11 11 11 10 10 9 8 8 8 8 8 8 8 8 8 7 7 7 7 7 7 7 7 6 6 6 6
8 9 9 9 9 10 9 9 9 9 8 7 8 8 9 10 11 11 11 11 10 9 8 8 7 7 7 7 7 7 7 7 7 7 6 6 6 6 6 6 6 6 6 5
8 8 9 9 8 8 8 8 7 7 7 7 9 9 9 11 11 11 10 10 9 9 8 7 7 7 6 6 6 6 6 6 6 6 6 6 6 6 5 5 5 5 5 5
8 7 7 8 8 7 8 8 7 7 8 8 9 8 9 11 11 11 10 10 9 8 7 6 6 6 6 6 6 6 6 6 5 5 5 5 5 5 5 5 5 5 5 5
7 7 7 8 8 8 8 7 8 7 7 7 8 9 10 10 9 9 9 9 8 7 7 6 5 5 5 5 5 5 5 5 5 5 5 5 5 4 4 4 4 4 4 4
7 6 6 7 7 7 7 7 6 6 6 7 9 9 8 9 8 8 8 8 7 7 6 5 5 5 4 4 5 5 5 5 4 4 4 4 4 4 4 4 4 4 4 4
6 5 5 5 5 5 6 6 6 6 6 6 7 8 9 8 8 8 7 8 7 6 6 5 5 4 4 4 4 4 4 4 4 4 4 4 3 3 3 3 3 3 3 3
6 5 5 5 5 6 6 6 5 5 5 6 6 6 9 8 8 7 7 7 6 6 5 5 4 4 4 4 4 4 4 3 3 3 3 3 3 3 3 3 3 2 3 3
5 4 4 5 4 4 4 5 5 4 4 4 5 6 7 7 7 7 6 6 6 5 5 4 4 3 3 3 3 3 3 3 3 3 3 2 2 2 2 2 2 2 2 2
5 3 3 5 5 3 3 3 4 3 3 3 5 5 6 6 6 6 6 6 5 5 4 4 3 3 3 2 2 2 2 2 2 2 2 2 2 2 2 2 2 2 2 2
3 2 2 3 4 4 3 3 3 2 3 3 4 5 6 5 5 6 6 5 5 4 4 3 3 2 2 2 2 2 2 2 2 2 1 1 1 1 1 1 1 1 1 1
2 2 2 2 3 3 3 3 3 3 3 3 3 4 5 5 6 5 5 4 4 3 3 3 2 2 2 2 1 1 1 1 1 1 1 1 1 1 1 1 1 1 1 1
1 1 1 2 3 2 1 3 3 3 3 3 3 4 4 4 4 4 4 4 3 3 2 2 2 2 1 1 1 1 1 1 1 1 1 0 0 0 0 0 -0 -0 0 0
0 0 1 1 2 1 3 4 4 3 3 3 3 3 3 3 3 3 3 3 2 2 2 2 2 1 1 1 1 0 0 0 0 0 0 0 -0 -0 -0 -0 -0 -0 -0 -1
1 0 1 1 1 2 3 4 3 3 2 3 3 3 3 3 2 2 2 2 2 1 1 1 1 1 1 0 0 0 -0 -0 -0 -0 -0 -0 -0 -1 -1 -1 -1 -1 -1 -1
-0 -0 -0 0 1 1 3 3 3 3 2 2 2 2 2 2 0 1 2 2 1 1 1 1 0 0 -0 -0 -0 -0 -0 -1 -1 -1 -1 -1 -1 -1 -1 -1 -1 -1 -1 -2
-1 -1 -1 -0 0 1 2 2 2 2 2 2 3 2 1 1 1 1 1 1 1 0 0 0 -0 -1 -1 -1 -1 -1 -1 -1 -1 -1 -1 -1 -1 -1 -1 -1 -2 -2 -2 -2
-1 -1 -1 -0 -0 1 1 1 1 1 2 2 2 2 1 1 1 0 0 0 -0 -0 -0 -1 -1 -1 -1 -1 -1 -1 -1 -2 -2 -2 -1 -1 -1 -1 -2 -2 -2 -2 -2 -2
0 0 0 -0 1 1 2 1 2 2 2 1 1 1 1 0 0 -0 -0 -1 -1 -1 -1 -1 -1 -2 -2 -2 -2 -2 -2 -2 -2 -2 -2 -2 -2 -2 -2 -2 -2 -3 -3 -3
-0 0 -0 -0 0 1 1 1 1 1 1 1 1 0 0 -0 -0 -1 -1 -1 -2 -2 -2 -2 -2 -2 -2 -2 -2 -2 -2 -2 -2 -2 -2 -2 -2 -2 -2 -2 -3 -3 -3 -3
0 -1 -1 -1 -1 -0 1 1 1 1 0 0 0 -0 -0 -0 -1 -1 -1 -2 -2 -2 -2 -2 -2 -2 -2 -2 -2 -3 -3 -3 -3 -2 -2 -2 -3 -3 -3 -3 -3 -3 -3 -4
-1 -1 -1 -1 -0 -0 0 1 0 0 -0 -0 -1 -1 -1 -1 -1 -2 -2 -2 -2 -2 -2 -3 -3 -3 -3 -3 -3 -3 -3 -3 -3 -3 -3 -3 -3 -3 -3 -4 -3 -4 -4 -4
Wind_Speed
4 3 5 5 6 6 6 6 6 4 2 4 8 9 8 5 5 5 5 5 4 4 3 3 2 3 3 3 2 1 2 2 2 1 1 1 1 1 1 2 3 2 2 3
4 6 5 5 5 6 7 8 7 3 1 3 7 9 8 6 7 6 6 4 4 4 3 3 3 3 2 3 3 2 2 2 2 1 1 1 1 1 1 2 2 1 1 1
5 1 4 6 5 6 7 6 6 4 3 5 5 7 7 5 6 5 4 4 4 4 4 4 3 2 2 3 2 2 2 2 2 2 2 1 1 1 1 1 0 1 1 0
3 3 3 4 4 4 6 3 4 4 3 4 3 5 4 5 6 7 6 5 4 4 4 4 3 3 3 2 1 2 3 3 2 2 2 2 2 1 1 1 1 1 1 1
3 2 3 4 4 4 2 2 3 4 4 4 5 5 5 5 5 6 5 5 4 4 3 3 3 3 3 2 2 1 2 2 2 2 2 2 2 1 1 1 1 1 0 1
2 1 2 2 2 2 2 2 2 2 1 5 7 7 5 3 4 4 4 4 4 4 4 3 3 3 3 2 2 1 2 2 2 2 2 2 2 1 1 1 1 1 1 0
4 4 2 0 1 2 2 1 0 1 3 6 5 5 5 2 2 2 4 4 4 4 4 3 3 3 2 2 1 1 2 2 2 2 2 2 2 2 2 2 2 1 1 0
4 4 5 3 2 3 4 4 3 3 4 3 2 5 3 2 4 4 4 4 4 4 4 3 2 2 1 1 1 1 1 1 2 2 1 1 1 1 1 1 1 1 1 1
2 2 2 2 1 1 3 4 1 1 3 3 5 3 2 3 3 3 3 3 3 3 4 3 2 2 1 1 1 1 1 1 1 2 1 1 1 1 1 1 1 1 1 1
2 1 3 2 0 2 2 1 2 3 3 4 5 4 3 3 2 3 3 3 3 3 3 3 2 1 1 0 0 1 1 2 1 1 1 1 1 1 1 1 1 1 1 1
1 1 2 3 4 5 4 3 3 3 3 3 3 2 1 3 2 2 3 3 3 3 3 2 1 1 1 1 1 0 1 1 1 1 1 0 0 1 1 0 0 1 1 1
1 1 3 3 1 1 2 3 4 3 4 3 3 4 2 5 4 5 4 4 3 3 3 2 2 2 1 1 1 1 0 0 1 1 1 1 1 0 0 0 1 0 1 1
1 2 1 1 1 0 1 2 3 2 2 3 4 4 0 4 4 3 2 2 1 2 2 2 1 1 1 1 1 1 1 0 0 0 0 1 1 0 0 0 1 0 0 1
0 2 4 4 2 2 3 4 4 4 4 5 7 8 6 3 2 1 0 0 0 0 1 1 1 0 0 1 1 2 2 1 0 0 1 1 1 0 0 1 0 0 0 0
1 2 3 4 4 2 5 6 7 8 8 8 8 9 10 4 3 3 2 1 1 1 0 1 0 0 1 0 1 1 2 1 1 0 1 1 0 0 0 0 0 0 0 1
1 2 1 4 5 5 7 9 10 10 10 11 11 13 9 4 3 3 3 2 2 2 2 1 1 1 1 1 1 1 1 1 1 1 0 0 0 0 0 0 0 0 0 1
2 2 1 3 1 3 7 10 12 8 8 8 11 11 6 4 3 3 3 2 1 2 2 2 2 2 2 2 2 2 2 1 1 0 0 0 0 0 0 0 0 0 0 0
4 3 2 2 1 7 7 2 6 8 9 9 8 7 5 3 2 3 1 1 2 3 3 3 2 2 2 1 1 1 1 1 1 1 0 0 1 0 0 0 0 1 0 0
4 4 3 2 4 7 5 3 3 4 5 5 6 6 4 2 3 2 1 1 2 3 2 2 2 2 2 1 1 1 1 1 1 1 1 1 1 0 0 1 1 1 1 1
2 3 3 4 4 6 3 1 2 2 4 2 2 2 2 2 2 3 1 2 3 2 1 1 1 1 1 1 1 2 2 2 2 2 1 1 1 1 1 1 1 1 1 1
4 4 6 6 6 7 3 2 3 3 4 0 1 1 1 1 3 2 2 2 2 2 2 1 1 1 1 1 1 2 2 3 3 2 1 1 1 2 2 1 1 1 1 1
7 6 6 6 7 8 3 3 4 3 1 1 1 1 1 2 3 3 2 2 2 2 2 2 2 2 2 2 2 2 3 3 2 2 1 2 2 1 1 1 1 1 1 1
7 7 5 7 7 3 3 3 3 2 3 3 2 2 2 3 3 3 3 3 2 2 2 2 2 3 3 2 2 3 3 2 1 1 2 2 1 1 1 1 1 1 1 1
4 3 3 5 6 5 4 4 4 4 4 4 3 3 3 4 4 3 3 3 3 2 2 2 2 3 3 3 2 3 2 1 1 2 2 2 1 1 1 1 1 1 2 2
3 3 4 6 6 4 5 4 4 4 4 3 3 3 4 4 4 4 4 3 3 3 2 2 2 3 4 3 3 2 2 2 2 2 2 1 1 1 1 1 1 2 2 2
4 5 5 6 4 4 5 3 3 4 5 4 4 4 3 4 4 4 4 3 3 3 3 2 3 4 4 3 3 3 2 2 2 2 2 1 1 1 1 1 2 3 3 4
Wind_Direction
193 209 212 213 222 261 285 280 272 258 194 231 243 253 256 235 224 226 219 210 197 183 156 138 132 127 128 131 130 133 126 126 116 115 131 126 120 92 71 54 51 46 37 37
194 220 231 236 232 252 265 271 275 284 307 267 261 264 258 228 219 220 217 212 199 172 159 148 143 140 151 146 141 137 129 139 142 137 147 154 152 160 134 62 48 36 32 27
206 192 225 236 233 239 247 255 273 288 311 265 275 276 236 209 202 212 204 202 206 185 174 167 165 158 148 134 139 150 155 140 131 135 132 106 81 71 76 76 102 19 10 9
219 238 218 223 237 247 247 263 278 281 288 268 237 277 248 205 200 209 204 197 201 183 173 173 168 157 144 132 125 147 150 137 142 142 153 166 166 187 215 183 175 90 32 20
215 223 231 227 241 249 261 307 276 259 256 280 236 239 269 206 219 210 192 176 171 165 166 166 158 149 137 129 125 145 133 140 152 151 161 162 169 189 173 139 142 138 93 15
230 235 258 255 242 246 256 260 250 243 236 258 223 210 269 218 209 192 172 160 158 155 147 128 116 122 126 128 124 127 140 149 142 150 155 160 176 170 172 187 184 179 174 171
207 198 179 239 196 186 218 171 127 223 220 241 196 202 242 220 116 140 148 142 136 131 127 119 113 122 130 133 139 143 155 153 141 144 155 176 188 178 197 204 202 195 189 203
203 204 182 195 208 191 215 207 185 218 239 268 199 220 230 111 100 97 103 113 122 128 132 133 130 119 121 126 132 165 176 162 150 159 182 196 178 179 211 209 210 214 202 209
235 181 123 164 302 241 206 223 258 283 284 273 242 222 220 131 107 112 116 117 130 134 125 126 132 134 146 162 173 186 175 165 159 164 175 185 175 189 214 202 188 202 205 206
327 187 164 142 177 262 273 268 149 187 227 256 245 228 219 165 177 163 156 154 130 115 105 102 103 91 72 89 105 168 163 169 168 171 188 205 204 225 226 192 180 191 196 196
323 183 165 164 200 199 187 211 219 224 237 231 260 255 78 134 125 123 133 122 110 111 115 117 117 109 77 33 44 96 165 158 159 164 164 167 239 243 228 217 227 217 218 214
225 201 231 207 121 39 209 206 189 195 244 235 256 265 25 89 86 83 89 88 81 97 111 112 110 108 74 43 22 5 213 155 160 159 160 192 219 249 220 272 274 244 225 229
145 155 196 226 248 57 256 244 234 225 252 236 229 248 36 86 74 77 85 79 69 85 100 91 91 94 52 20 4 1 345 339 113 166 191 222 229 219 221 281 299 298 225 226
52 181 202 213 202 158 216 230 220 200 217 242 237 254 277 297 330 345 233 218 131 83 133 115 103 62 33 346 345 355 355 10 67 249 220 218 239 224 226 261 265 290 292 258
117 213 237 273 279 249 232 230 218 220 224 232 253 260 266 268 285 297 314 321 325 319 269 219 251 305 307 325 340 337 339 341 335 263 224 224 250 16 73 249 288 275 283 289
150 220 260 272 247 249 257 243 231 236 239 245 263 272 266 270 275 295 305 298 289 288 293 285 267 279 269 265 275 297 294 297 314 298 268 202 131 119 89 39 355 306 290 292
171 170 208 259 246 311 263 236 220 219 219 221 241 254 275 282 285 286 288 299 267 287 288 288 263 252 248 244 239 243 248 261 284 294 289 87 99 82 12 351 355 308 292 302
168 170 200 267 305 248 244 219 196 216 237 231 244 261 266 270 295 305 325 319 307 303 298 290 276 266 258 233 238 257 270 261 226 218 190 114 99 83 2 350 311 300 308 298
187 178 203 218 246 264 263 247 188 206 260 237 239 260 283 316 315 295 332 323 291 288 289 282 264 253 248 224 208 236 251 262 235 225 209 200 184 187 283 293 294 299 314 322
174 173 201 216 239 249 244 116 102 98 273 256 193 242 288 8 286 267 347 6 334 323 312 304 299 286 251 235 208 219 228 227 232 234 232 214 200 206 234 245 263 289 309 295
173 194 211 225 243 263 256 164 129 189 253 313 141 184 165 225 240 266 312 327 323 329 331 338 333 308 270 243 225 230 230 235 237 224 213 220 213 212 222 237 252 249 266 290
184 189 201 204 225 250 194 149 193 227 340 343 312 268 238 262 281 286 294 305 314 320 324 332 330 311 297 254 228 234 241 242 231 205 207 225 225 229 218 200 242 249 238 256
202 202 198 203 222 241 188 208 239 298 298 302 304 304 273 272 276 277 279 281 283 288 301 310 302 298 297 272 233 241 258 240 219 214 219 224 231 235 218 202 218 242 242 247
225 215 231 255 257 253 257 266 285 295 288 292 286 286 279 268 267 271 281 285 287 285 282 280 283 286 292 289 259 252 269 244 214 232 234 220 211 231 250 257 236 234 242 239
234 197 232 255 266 284 263 256 268 282 290 294 290 271 258 256 262 267 273 269 268 273 272 262 262 271 279 285 266 262 255 226 221 236 235 225 213 219 245 263 263 258 258 247
232 224 231 252 265 262 269 263 271 273 276 274 277 278 267 248 253 262 263 261 261 264 263 261 262 268 274 279 275 271 256 220 213 236 234 229 226 230 236 251 294 293 274 288
Height
1478 1481 1482 1480 1480 1480 1478 1478 1479 1477 1477 1480 1480 1478 1476 1475 1476 1476 1477 1479 1480 1482 1483 1484 1485 1485 1486 1486 1487 1488 1489 1489 1489 1490 1491 1492 1492 1493 1493 1493 1494 1494 1494 1494
1478 1480 1478 1477 1478 1478 1479 1480 1479 1477 1477 1478 1478 1476 1472 1470 1471 1472 1474 1475 1477 1479 1481 1481 1482 1483 1483 1484 1485 1485 1486 1486 1487 1487 1488 1489 1490 1490 1491 1491 1491 1491 1491 1491
1476 1478 1476 1477 1477 1478 1479 1480 1480 1480 1479 1477 1479 1477 1468 1465 1467 1469 1471 1472 1475 1476 1478 1479 1480 1480 1481 1481 1482 1483 1483 1484 1484 1485 1486 1487 1487 1487 1488 1488 1488 1488 1488 1488
1476 1476 1476 1476 1477 1478 1479 1478 1479 1481 1485 1485 1481 1487 1469 1465 1465 1466 1467 1469 1471 1473 1475 1476 1477 1477 1478 1479 1480 1480 1481 1481 1482 1482 1483 1483 1483 1484 1484 1484 1484 1484 1485 1485
1476 1475 1476 1477 1478 1478 1479 1478 1479 1481 1484 1487 1482 1488 1475 1462 1464 1463 1464 1466 1468 1471 1473 1474 1474 1475 1475 1476 1477 1478 1478 1479 1479 1480 1480 1480 1481 1481 1481 1481 1481 1481 1482 1482
1475 1476 1476 1476 1477 1478 1478 1479 1480 1482 1487 1493 1479 1483 1475 1464 1460 1460 1461 1464 1466 1468 1470 1472 1472 1473 1473 1474 1474 1475 1476 1476 1476 1477 1477 1478 1478 1478 1478 1478 1478 1478 1478 1479
1475 1475 1475 1476 1478 1479 1480 1484 1490 1491 1492 1486 1470 1475 1471 1458 1457 1458 1460 1463 1465 1467 1468 1469 1470 1470 1471 1471 1472 1472 1473 1473 1474 1474 1474 1475 1475 1475 1475 1475 1475 1475 1475 1475
1474 1476 1475 1476 1477 1479 1480 1480 1488 1491 1484 1475 1472 1473 1465 1456 1456 1457 1459 1462 1464 1466 1467 1468 1468 1469 1469 1469 1469 1470 1470 1471 1471 1471 1472 1473 1473 1472 1472 1472 1472 1472 1472 1472
1473 1474 1475 1475 1476 1477 1478 1480 1478 1484 1483 1485 1473 1464 1459 1456 1457 1458 1460 1462 1463 1464 1466 1466 1467 1467 1467 1467 1467 1467 1468 1469 1469 1469 1470 1470 1470 1470 1470 1470 1470 1470 1469 1470
1473 1477 1476 1476 1477 1478 1479 1478 1483 1487 1488 1482 1467 1462 1464 1459 1458 1458 1459 1461 1463 1464 1464 1465 1465 1465 1465 1465 1465 1465 1466 1466 1467 1467 1467 1467 1467 1468 1467 1467 1467 1467 1467 1467
1474 1479 1479 1479 1480 1479 1480 1481 1481 1481 1481 1482 1476 1470 1456 1457 1456 1458 1459 1461 1462 1463 1463 1464 1464 1464 1464 1463 1463 1463 1463 1464 1464 1464 1464 1464 1465 1465 1465 1464 1464 1464 1464 1465
1475 1478 1480 1477 1476 1476 1476 1477 1481 1487 1485 1479 1479 1474 1456 1456 1457 1458 1460 1461 1462 1462 1463 1463 1463 1463 1462 1462 1461 1461 1461 1461 1461 1462 1462 1461 1462 1462 1461 1461 1461 1462 1462 1462
1476 1480 1482 1480 1482 1481 1480 1478 1479 1482 1483 1482 1480 1473 1458 1457 1458 1459 1460 1461 1461 1461 1461 1461 1461 1461 1460 1460 1459 1459 1459 1459 1459 1459 1459 1459 1459 1459 1458 1458 1459 1459 1459 1459
1475 1480 1481 1477 1474 1478 1480 1480 1479 1482 1486 1482 1473 1466 1460 1459 1459 1459 1460 1460 1460 1460 1460 1459 1459 1459 1458 1458 1457 1457 1456 1456 1456 1456 1456 1456 1456 1456 1456 1456 1456 1456 1456 1456
1476 1480 1479 1476 1473 1474 1476 1477 1478 1480 1477 1477 1467 1464 1458 1458 1458 1458 1458 1458 1458 1458 1458 1457 1457 1456 1456 1455 1455 1455 1454 1454 1454 1454 1453 1453 1453 1453 1453 1453 1453 1453 1453 1453
1476 1479 1479 1478 1473 1473 1474 1472 1472 1473 1471 1470 1466 1461 1454 1456 1456 1456 1457 1456 1456 1456 1455 1455 1454 1454 1453 1453 1453 1453 1452 1452 1452 1451 1451 1451 1450 1451 1450 1450 1450 1450 1450 1450
1477 1480 1481 1477 1473 1474 1474 1464 1464 1465 1462 1463 1463 1456 1452 1454 1454 1454 1455 1455 1455 1454 1454 1453 1452 1451 1451 1450 1450 1450 1450 1449 1449 1449 1449 1448 1448 1448 1448 1448 1448 1448 1447 1447
1477 1479 1480 1478 1478 1482 1461 1452 1452 1455 1454 1455 1453 1451 1451 1451 1452 1452 1453 1453 1452 1452 1451 1450 1449 1448 1448 1448 1447 1447 1447 1447 1447 1446 1446 1446 1446 1445 1445 1445 1445 1445 1445 1445
1473 1476 1478 1479 1477 1466 1456 1451 1451 1454 1453 1450 1450 1449 1449 1450 1450 1450 1450 1450 1450 1449 1448 1447 1446 1446 1445 1444 1444 1444 1444 1444 1444 1444 1443 1443 1443 1443 1443 1443 1443 1443 1443 1442
1472 1474 1478 1476 1475 1467 1453 1450 1449 1453 1455 1448 1447 1448 1448 1449 1452 1449 1448 1448 1447 1446 1445 1444 1444 1443 1442 1441 1441 1441 1441 1441 1441 1441 1441 1441 1441 1441 1440 1440 1440 1440 1440 1440
1474 1474 1475 1473 1471 1459 1452 1449 1450 1458 1453 1447 1446 1446 1447 1448 1448 1447 1446 1445 1445 1444 1443 1442 1441 1440 1439 1439 1439 1438 1438 1438 1438 1438 1438 1438 1438 1438 1438 1438 1438 1438 1438 1438
1466 1469 1470 1468 1468 1461 1450 1449 1451 1449 1446 1445 1445 1445 1445 1445 1444 1444 1443 1443 1442 1441 1440 1439 1438 1437 1437 1436 1436 1435 1435 1435 1435 1435 1435 1435 1435 1435 1435 1435 1435 1435 1435 1435
1456 1456 1456 1457 1454 1447 1446 1445 1445 1445 1444 1444 1444 1443 1443 1442 1442 1441 1441 1440 1439 1439 1438 1437 1436 1434 1434 1433 1433 1432 1432 1432 1432 1432 1431 1432 1432 1432 1432 1432 1432 1432 1432 1432
1451 1449 1450 1450 1445 1444 1443 1443 1443 1443 1442 1441 1441 1441 1440 1439 1439 1438 1437 1437 1436 1436 1435 1434 1433 1432 1431 1431 1430 1430 1429 1429 1429 1429 1429 1429 1429 1429 1429 1429 1429 1429 1429 1429
1446 1447 1448 1447 1443 1442 1440 1440 1440 1439 1439 1438 1438 1438 1437 1436 1435 1435 1434 1433 1433 1432 1432 1431 1430 1429 1428 1428 1427 1427 1427 1426 1426 1426 1426 1426 1426 1426 1426 1426 1426 1426 1426 1426
1443 1444 1445 1442 1440 1440 1437 1437 1437 1436 1435 1434 1434 1433 1433 1432 1431 1431 1430 1430 1429 1429 1428 1428 1427 1426 1425 1424 1424 1424 1424 1424 1423 1423 1423 1423 1423 1423 1423 1423 1423 1423 1423 1423